SCP
0 0 0 0 0 0 0 0 0 0 0 0 0 0 0 0 0 0 0 0 0 0 0 0 0 0 0 0 0 0 0 0 0 0 0 0 0 0 0 0 0 0 0
0 0 0 0 0 0 0 0 0 0 0 0 0 0 0 0 0 0 0 0 0 0 0 0 0 0 0 0 0 0 0 0 0 0 0 0 0 0 0 0 0 0 0
0 0 0 0 0 0 0 0 0 0 0 0 0 0 0 0 0 0 0 0 0 0 0 0 0 0 0 0 0 0 0 0 0 0 0 0 0 0 0 0 0 0 0
0 0 0 0 0 0 0 0 0 0 0 0 0 0 0 0 0 0 0 0 0 0 0 0 0 0 0 0 0 0 0 0 0 0 0 0 0 0 0 0 0 0 0
0 0 0 0 0 0 0 0 0 0 0 0 0 0 0 0 0 0 0 0 0 0 0 0 0 0 0 0 0 0 0 0 0 0 0 0 0 0 0 0 0 0 0
0 0 0 0 0 0 0 0 0 0 0 0 0 0 0 0 0 0 0 0 0 0 0 0 0 0 0 0 0 0 0 0 0 0 0 0 0 0 0 0 0 0 0
0 0 0 0 0 0 0 0 0 0 0 0 0 0 0 0 0 0 0 0 0 0 0 0 0 0 0 0 0 0 0 0 0 0 0 0 0 0 0 0 0 0 0
0 0 0 0 0 0 0 0 0 0 0 0 0 0 0 0 0 0 0 0 0 0 0 0 0 0 0 0 0 0 0 0 0 0 0 0 0 0 0 0 0 0 0
0 0 0 0 0 0 0 0 0 0 0 0 0 0 0 0 0 0 0 0 0 0 0 0 0 0 0 0 0 0 0 0 0 0 0 0 0 0 0 0 0 0 0
0 0 0 0 0 0 0 0 0 0 0 0 0 0 0 0 0 0 0 0 0 0 0 0 0 0 0 0 0 0 0 0 0 0 0 0 0 0 0 0 0 0 0
0 0 0 0 0 0 0 0 0 0 0 0 0 0 0 0 0 0 0 0 0 0 0 0 0 0 0 0 0 0 0 0 0 0 0 0 0 0 0 0 0 0 0
0 0 0 0 0 0 0 0 0 0 0 0 0 0 0 0 0 0 0 0 0 0 0 0 0 0 0 0 0 0 0 0 0 0 0 0 0 0 0 0 0 0 0
0 0 0 0 0 0 0 0 0 0 0 0 0 0 0 0 0 0 0 0 0 0 0 0 0 0 0 0 0 0 0 0 0 0 0 0 0 0 0 0 0 0 0
0 0 0 0 0 0 0 0 0 0 0 0 0 0 0 0 0 0 0 0 0 0 0 0 0 0 0 0 0 0 0 0 0 0 0 0 0 0 0 0 0 0 0
0 0 0 0 0 0 0 0 0 0 0 0 0 0 0 0 0 0 0 0 0 0 0 0 0 0 0 0 0 0 0 0 0 0 0 0 0 0 0 0 0 0 0
0 0 0 0 0 0 0 0 0 0 0 0 0 0 0 0 0 0 0 0 0 0 0 0 0 0 0 0 0 0 0 0 0 0 0 0 0 0 0 0 0 0 0
0 0 0 0 0 0 0 0 0 0 0 0 0 0 0 0 0 0 0 0 0 0 0 0 0 0 0 0 0 0 0 0 0 0 0 0 0 0 0 0 0 0 0
0 0 -0 -0 -0 0 0 0 0 0 0 0 0 0 0 0 0 0 0 0 0 0 0 0 0 0 0 0 0 0 0 0 0 0 0 0 0 0 0 0 0 0 0
-0 -0 -0 -0 -0 0 0 0 0 0 0 0 0 0 0 0 0 0 0 0 0 0 0 0 0 0 0 0 0 0 0 0 0 0 0 0 0 0 0 0 0 0 0
0 -0 -0 -0 -0 0 0 0 0 0 0 0 0 0 0 0 0 0 0 0 0 0 0 0 0 0 0 0 0 0 0 0 0 0 0 0 0 0 0 0 0 0 0
0 0 0 0 0 0 0 0 0 0 0 0 0 0 0 0 0 0 0 0 0 0 0 0 0 0 0 0 0 0 0 0 0 0 0 0 0 0 0 0 0 0 0
0 0 0 0 0 0 0 0 0 0 0 -0 0 0 0 0 0 0 0 0 0 0 0 0 0 0 0 0 0 0 0 0 0 0 0 0 0 0 0 0 0 0 0
0 0 0 0 0 0 0 0 0 0 -0 -0 -0 0 0 0 0 0 0 0 0 0 0 0 0 0 0 0 0 0 0 0 0 0 0 0 0 0 0 0 0 0 0
0 0 0 0 0 0 0 0 0 -0 -0 -0 -0 -0 0 0 0 0 0 0 0 0 0 0 0 0 0 0 0 0 0 0 0 0 0 0 0 0 0 0 0 0 0
0 0 0 0 0 0 0 0 -0 -0 -0 -0 -0 -0 0 0 0 0 0 0 0 0 0 0 0 0 0 0 0 0 0 0 0 0 0 0 0 0 0 0 0 0 0
0 0 0 0 0 0 0 0 -0 -0 -0 -0 -0 0 0 0 0 0 0 0 0 0 0 0 0 0 0 0 0 0 0 0 0 0 0 0 0 0 0 0 0 0 0
Wind_Speed
3 2 2 2 2 1 1 2 1 1 0 0 1 1 2 2 1 1 1 2 1 1 2 2 2 2 2 2 2 1 1 1 0 0 1 2 2 2 2 2 1 2 2
2 1 1 1 2 2 2 2 2 2 1 1 1 1 2 2 2 2 1 2 2 2 2 3 2 2 2 2 1 1 1 1 0 1 0 1 2 1 2 1 2 2 1
3 2 2 2 2 2 3 2 2 1 1 1 0 1 1 1 1 1 2 2 2 2 2 3 3 3 3 3 3 3 2 1 1 1 1 1 2 2 2 2 2 1 1
3 3 2 2 3 3 3 2 2 1 1 0 1 1 1 2 2 2 2 3 3 3 3 3 3 3 3 3 4 3 2 3 2 1 1 2 2 1 2 2 2 2 3
4 4 4 4 3 2 2 2 1 1 1 0 1 1 2 2 2 2 3 3 3 3 3 3 2 3 3 3 4 3 3 2 3 2 2 2 2 2 2 3 2 2 3
3 3 3 2 2 1 1 1 1 1 1 1 1 2 3 3 2 3 3 3 3 3 3 3 3 3 3 4 3 3 3 3 3 3 2 2 2 2 2 3 3 4 3
2 2 2 2 2 2 2 1 1 2 2 2 2 2 3 4 4 4 3 3 3 3 3 3 3 3 3 4 3 3 4 4 4 4 4 4 3 2 2 3 3 4 3
2 2 3 3 3 2 2 1 2 2 2 2 3 3 3 3 3 4 3 4 3 4 4 4 4 4 4 4 4 3 4 4 5 5 5 4 4 3 3 3 3 4 4
2 2 3 3 2 2 2 2 2 2 3 3 3 3 3 3 4 4 3 3 4 4 4 4 4 4 4 4 4 4 4 4 5 5 5 5 4 4 4 3 3 4 5
2 2 3 3 3 2 2 2 2 2 3 3 3 3 3 4 4 3 4 4 4 5 4 4 4 4 4 5 4 4 4 5 5 4 5 6 5 4 4 4 4 4 5
3 3 3 3 2 2 1 1 2 2 3 3 3 3 3 3 3 3 4 4 5 5 5 4 4 4 5 5 4 5 5 6 6 6 6 7 6 5 4 4 4 5 5
3 2 2 2 2 2 2 2 2 2 3 3 3 3 4 3 3 4 4 4 5 5 5 4 5 5 6 5 5 6 6 6 6 6 6 7 5 6 5 5 5 5 5
3 3 2 2 2 2 2 2 3 3 3 3 3 3 4 4 4 5 5 5 5 5 5 5 5 6 6 6 6 6 7 7 7 7 6 6 6 6 5 5 6 5 6
3 2 2 2 2 2 2 3 3 3 3 3 3 4 4 5 5 5 5 5 5 5 5 5 6 6 6 6 7 7 7 7 7 7 7 7 7 7 7 6 6 6 6
3 2 2 2 2 3 3 3 3 3 3 3 4 4 5 5 5 5 6 5 5 6 6 6 6 6 5 6 6 6 7 7 7 7 7 7 8 10 8 7 6 6 5
3 3 3 2 3 3 3 4 4 4 4 4 5 5 5 5 5 5 6 5 5 6 6 6 6 6 6 8 10 9 7 7 7 7 7 7 8 10 12 12 11 9 8
4 3 3 3 3 3 3 3 4 4 4 4 5 5 5 6 6 6 6 6 6 6 6 6 6 7 7 10 11 11 8 6 6 6 6 6 6 8 7 9 11 11 12
3 4 3 4 3 3 3 3 4 4 4 5 5 6 5 6 6 6 6 6 6 6 6 6 6 6 7 10 11 11 7 6 6 6 7 7 7 7 7 7 8 8 8
4 4 4 3 3 3 3 3 4 4 4 5 6 6 6 6 6 7 7 6 6 6 6 6 6 6 7 9 10 10 5 5 6 6 6 7 7 10 11 8 8 8 7
3 3 2 2 2 3 2 2 4 4 5 6 6 6 6 6 6 7 7 6 6 6 6 6 5 6 6 8 10 10 4 5 5 5 6 9 10 10 11 8 7 8 7
3 2 2 2 3 2 2 3 4 5 6 6 6 6 6 6 6 6 6 6 6 6 6 6 6 5 6 8 9 10 5 4 5 5 5 6 10 11 11 9 7 9 7
3 2 2 2 3 2 2 3 5 5 5 5 5 6 6 5 5 5 6 5 5 5 5 5 5 5 5 6 7 9 9 7 5 5 5 6 9 10 10 8 9 10 8
3 2 2 2 3 2 2 3 5 5 5 5 5 6 6 5 5 5 6 5 4 4 4 4 4 5 4 5 8 10 10 10 6 5 7 8 9 8 7 8 8 7 5
3 2 2 2 4 4 3 3 4 4 4 5 5 5 5 5 5 4 5 4 4 4 4 4 4 5 5 4 4 4 5 7 6 5 6 8 8 6 5 5 5 4 4
3 2 2 3 4 4 4 5 4 3 4 4 5 5 4 5 5 5 4 5 5 5 5 4 4 5 5 6 8 6 5 4 4 4 3 3 3 3 3 3 3 2 3
3 3 3 3 4 4 5 5 4 3 3 4 4 4 4 4 4 5 5 7 7 9 9 9 8 7 9 11 11 11 11 10 8 4 3 3 3 3 3 3 3 3 3
Wind_Direction
255 248 232 213 201 211 215 224 236 258 252 269 253 268 276 271 269 252 244 247 233 239 219 211 205 195 194 209 219 211 216 287 268 38 321 302 264 233 218 219 221 235 233
287 272 253 237 213 211 222 233 235 240 233 234 227 245 270 263 264 266 269 264 253 246 241 208 207 203 199 210 217 172 185 256 314 159 141 311 295 275 256 235 217 222 223
231 242 247 254 254 237 231 234 236 242 253 252 246 330 345 326 301 295 289 279 267 256 250 227 206 200 198 208 220 193 178 206 261 207 181 189 242 287 264 235 227 224 228
235 238 240 253 252 249 241 237 238 246 258 189 183 191 231 252 264 269 278 286 267 261 256 236 214 202 207 212 218 207 195 185 219 247 247 236 214 228 274 264 251 247 243
232 232 234 237 248 256 245 237 243 267 283 240 208 210 261 259 276 285 287 289 282 267 264 243 225 217 212 215 210 210 204 197 210 224 238 255 270 241 235 259 263 268 250
247 247 251 256 272 299 300 287 267 285 287 267 246 238 264 270 272 273 272 276 283 277 275 266 241 232 222 216 214 212 211 213 215 228 228 223 220 232 237 251 258 260 257
247 269 271 265 270 280 284 295 291 302 296 270 260 259 261 251 246 256 254 263 275 284 278 275 256 245 237 224 217 217 223 221 219 224 233 236 236 231 242 252 266 269 272
252 271 268 250 247 253 267 280 279 296 303 287 275 269 263 254 257 257 255 256 260 269 270 267 263 258 248 241 223 224 228 227 225 232 234 241 243 237 235 236 250 275 269
272 281 292 284 264 255 250 248 261 293 301 294 295 291 279 269 266 269 268 266 267 272 267 267 268 266 258 249 232 229 232 231 230 234 235 241 243 237 240 240 232 239 261
291 294 299 298 287 268 266 274 269 274 292 297 292 300 289 275 271 273 274 272 271 269 269 270 268 269 262 254 243 237 235 235 240 238 238 243 246 242 237 237 240 240 246
279 286 296 299 303 316 312 306 303 307 307 305 302 307 301 292 288 278 272 271 276 273 266 265 265 266 262 252 244 242 235 236 242 244 243 245 246 247 241 237 239 241 243
290 286 292 310 328 329 329 319 309 306 303 304 308 308 308 303 290 283 279 276 274 271 267 266 264 263 262 252 241 243 241 236 242 243 244 249 248 249 246 240 243 245 244
303 307 311 317 321 322 321 318 313 306 311 316 316 317 311 304 291 283 282 278 273 272 270 265 261 261 258 254 247 242 240 237 240 239 239 243 244 249 251 248 248 249 250
286 299 312 312 316 315 310 309 312 315 319 321 314 310 302 295 291 289 284 280 276 273 270 266 263 262 263 260 252 245 243 239 240 237 237 239 239 243 246 249 249 250 250
297 296 300 304 316 318 315 316 317 321 323 320 313 306 303 304 301 299 291 286 283 281 274 271 269 266 262 260 255 246 246 246 243 240 240 241 244 248 247 249 244 243 246
285 291 301 303 303 304 309 317 316 315 321 317 310 311 315 312 308 304 300 296 290 286 280 271 267 266 265 274 273 265 250 244 243 245 245 245 247 253 256 257 258 252 248
272 279 284 278 282 286 291 297 302 312 318 314 313 315 315 312 310 309 309 304 298 295 288 278 270 267 271 275 274 272 263 249 244 243 247 253 255 257 250 259 264 262 262
267 274 279 282 286 289 297 301 308 315 316 317 316 315 314 311 310 308 305 302 297 294 288 287 281 273 277 281 279 278 269 257 250 245 242 244 250 252 252 249 253 252 255
256 264 262 266 279 290 299 308 312 315 315 313 312 311 311 310 310 308 305 302 300 297 291 290 286 282 285 288 283 279 266 257 253 249 246 246 245 256 256 252 253 255 256
266 271 278 286 286 293 301 302 304 310 306 304 305 306 306 304 304 303 303 302 300 298 296 297 293 286 284 289 287 281 263 261 260 253 250 254 256 260 255 245 244 252 256
278 282 275 277 275 285 295 293 297 295 297 300 303 306 306 303 299 301 302 302 301 301 297 292 292 289 288 291 290 286 270 259 263 261 256 253 261 262 259 255 246 253 258
291 283 278 288 290 283 287 295 296 299 304 305 306 307 308 308 311 311 310 307 302 300 298 296 296 292 290 291 289 286 282 278 265 263 261 261 266 264 261 257 258 262 261
298 294 280 301 307 298 280 283 294 305 310 311 310 309 312 313 312 311 311 311 307 301 300 300 302 305 304 296 293 291 290 287 277 267 273 278 272 268 264 265 268 265 256
302 301 307 304 302 303 300 284 292 303 306 306 308 310 312 314 314 310 307 306 304 301 297 297 299 302 304 302 299 290 292 293 286 284 287 290 287 279 278 277 272 260 255
299 293 279 278 287 298 299 299 300 304 306 304 305 308 309 307 308 306 300 302 292 299 299 291 291 297 299 306 313 308 297 291 282 289 281 278 281 274 271 268 263 257 263
286 287 282 283 289 294 297 298 298 294 297 305 307 306 304 303 305 306 306 303 302 308 308 309 304 296 300 307 311 312 312 310 304 290 271 272 269 268 271 273 273 263 260